Home > Weather > Mashhad > Past weeks

Flag for Iran Weather for the Past 2 Weeks in Mashhad, Iran

Now
27 °F

Passing clouds.


Feels Like: 17 °F
Forecast: 13 / 37 °F
Wind: 9 mph from Southeast

Location: Mashhad Airport

Current Time: Feb 11, 2016 at 11:41:34 PM

Latest Report: Feb 11, 2016 at 11:00 PM


Visibility: N/A

Pressure: 30.15 "Hg (26.63 "Hg at 981m altitude)

Humidity: 80%

Dew point: 21 °F

Location of MashhadLocation

Historic Weather in Mashhad — Graph

°F

Mashhad Temperature Yesterday

Maximum temperature yesterday: 30 °F (at 2:30 PM)
Minimum temperature yesterday: 23 °F (at 5:30 AM)
Average temperature yesterday: 26 °F

High & Low Weather Summary for the Past Weeks

 TemperatureHumidityPressure
High72 °F (Feb 7, 3:30 PM)100% (Jan 27, 11:00 PM)30.39 "Hg (Jan 27, 11:00 PM)
Low23 °F (Jan 30, 7:00 AM)10% (Feb 7, 1:30 PM)29.89 "Hg (Feb 6, 3:30 PM)
Average39 °F66%30.18 "Hg
* Reported Jan 27 10:30 PM — Feb 11 10:30 PM, Mashhad, Weather by CustomWeather, © 2016

Note: Actual official high and low records may vary slightly from our data, if they occured in-between our weather recording intervals... More about our weather records

Advertising

Mashhad Weather History for the Previous 24 Hours

 ConditionsComfort  
Time TempWeatherWind HumidityBarometerVisibility
10:30 PM
Thu, Feb 11
27 °FPassing clouds.9 mph80%30.18 "HgN/A
10:00 PM27 °FPassing clouds.9 mph80%30.18 "HgN/A
9:30 PM27 °FPassing clouds.9 mph80%30.18 "HgN/A
9:00 PM27 °FPassing clouds.9 mph80%30.18 "HgN/A
8:30 PM27 °FPassing clouds.12 mph80%30.18 "HgN/A
8:00 PM28 °FPassing clouds.12 mph74%30.15 "HgN/A
7:30 PM28 °FClear.16 mph74%30.15 "Hg10 mi
7:00 PM28 °FClear.14 mph74%30.15 "Hg10 mi
6:30 PM30 °FClear.14 mph75%30.15 "Hg10 mi
6:00 PM30 °FClear.16 mph69%30.15 "Hg10 mi
5:30 PM32 °FSunny.12 mph69%30.12 "Hg10 mi
5:00 PM34 °FSunny.12 mph60%30.12 "Hg10 mi
4:30 PM34 °FSunny.14 mph60%30.12 "Hg10 mi
4:00 PM36 °FSunny.9 mph60%30.12 "Hg10 mi
3:30 PM36 °FSunny.9 mph60%30.12 "Hg10 mi
3:00 PM37 °FSunny.5 mph56%30.12 "Hg10 mi
2:30 PM36 °FSunny.7 mph56%30.12 "Hg10 mi
2:00 PM37 °FSunny.7 mph56%30.12 "Hg10 mi
1:30 PM36 °FSunny.5 mph56%30.12 "Hg10 mi
1:00 PM36 °FSunny.7 mph60%30.15 "Hg10 mi
12:30 PM34 °FSunny.5 mph60%30.15 "Hg10 mi
12:00 PM32 °FSunny.5 mph60%30.18 "Hg10 mi
11:30 AM32 °FSunny.No wind60%30.18 "Hg10 mi
11:00 AM34 °FPassing clouds.7 mph60%30.21 "HgN/A
10:30 AM34 °FPassing clouds.5 mph56%30.21 "HgN/A
10:00 AM30 °FScattered clouds.7 mph64%30.24 "HgN/A
9:30 AM28 °FScattered clouds.7 mph64%30.24 "HgN/A
9:00 AM28 °FScattered clouds.7 mph64%30.24 "HgN/A
8:30 AM27 °FPartly sunny.7 mph74%30.24 "HgN/A
8:00 AM27 °FPartly sunny.7 mph80%30.27 "HgN/A
7:30 AM25 °FPartly sunny.7 mph86%30.27 "Hg5 mi
7:00 AM23 °FPartly sunny.7 mph93%30.27 "Hg4 mi
6:30 AM23 °FOvercast.7 mph93%30.27 "Hg4 mi
5:30 AM23 °FOvercast.7 mph93%30.27 "Hg4 mi
5:00 AM23 °FOvercast.7 mph93%30.27 "Hg4 mi
4:30 AM23 °FOvercast.7 mph93%30.27 "Hg4 mi
4:00 AM23 °FOvercast.9 mph93%30.27 "Hg4 mi
3:00 AM23 °FOvercast.7 mph93%30.27 "Hg4 mi
2:30 AM23 °FOvercast.7 mph93%30.30 "Hg5 mi
2:00 AM23 °FOvercast.7 mph93%30.33 "HgN/A
1:00 AM23 °FOvercast.7 mph86%30.33 "HgN/A
12:30 AM23 °FLow clouds.7 mph93%30.33 "HgN/A
12:00 AM23 °FLow clouds.9 mph93%30.36 "HgN/A
11:30 PM
Wed, Feb 10
23 °FLow clouds.12 mph93%30.36 "HgN/A
11:00 PM23 °FLow clouds.7 mph93%30.39 "Hg4 mi
Weather by CustomWeather, © 2016

See weather overviewHow to use our weather pages